Location: Burleson Alternative School
(32.5290°N, 97.3406°W)
Time: 00:06:18
(UTC+00:00)

JUGNU - Pass Details

Date: 06 December 2024
Orbit: 834 x 861 km, 20.0° (Epoch: 19 January)

Event Time Altitude Azimuth Distance (km) Brightness Sun altitude
Rises 12:30:07 0° 236° (WSW) 3,359 ? -10.0°
Reaches altitude 10° 12:33:13 10° 221° (SW) 2,427 ? -9.4°
Maximum altitude 12:37:31 21° 173° (S) 1,769 ? -8.6°
Drops below altitude 10° 12:41:49 10° 126° (SE) 2,437 ? -7.7°
Sets 12:44:57 0° 110° (ESE) 3,376 ? -7.1°
